Time,TemperatureF,DewpointF,PressureIn,WindDirection,WindDirectionDegrees,WindSpeedMPH,WindSpeedGustMPH,Humidity,HourlyPrecipIn,Conditions,Clouds,dailyrainin,SoftwareType,DateUTC
2013-04-03 07:30:00,35.2,25.3,29.84,East,90,6.7,21.2,67,0.00,CLR,,0.00,WeatherDisplay:10.37,2013-04-03 13:30:00,
2013-04-03 07:34:00,35.4,25.5,29.84,WSW,248,8.1,8.1,67,0.00,CLR,,0.00,WeatherDisplay:10.37,2013-04-03 13:34:00,
2013-04-03 07:39:00,36.1,25.5,29.84,SSE,158,6.5,9.2,65,0.00,CLR,,0.00,WeatherDisplay:10.37,2013-04-03 13:39:00,
2013-04-03 07:44:00,36.9,26.2,29.84,South,180,6.8,8.1,65,0.00,CLR,,0.00,WeatherDisplay:10.37,2013-04-03 13:44:00,
2013-04-03 07:49:00,37.0,25.9,29.84,SW,225,6.4,9.2,64,0.00,CLR,,0.00,WeatherDisplay:10.37,2013-04-03 13:49:00,
2013-04-03 07:54:00,37.2,25.8,29.84,South,180,8.2,11.5,63,0.00,BKN,,0.00,WeatherDisplay:10.37,2013-04-03 13:54:00,
2013-04-03 07:59:00,37.4,25.9,29.84,SW,225,6.7,8.8,63,0.00,BKN,,0.00,WeatherDisplay:10.37,2013-04-03 13:59:00,
2013-04-03 08:04:00,37.4,25.9,29.84,WSW,248,6.4,6.9,63,0.00,CLR,,0.00,WeatherDisplay:10.37,2013-04-03 14:04:00,
2013-04-03 08:09:00,37.8,26.3,29.84,WSW,248,5.0,6.9,63,0.00,CLR,,0.00,WeatherDisplay:10.37,2013-04-03 14:09:00,
2013-04-03 08:14:00,37.8,26.3,29.84,SW,225,7.9,8.1,63,0.00,CLR,,0.00,WeatherDisplay:10.37,2013-04-03 14:14:00,
2013-04-03 08:19:00,37.9,26.0,29.84,SSW,202,6.9,10.4,62,0.00,CLR,,0.00,WeatherDisplay:10.37,2013-04-03 14:19:00,
2013-04-03 08:25:00,38.3,26.4,29.84,South,180,11.3,12.7,62,0.00,CLR,,0.00,WeatherDisplay:10.37,2013-04-03 14:25:00,
2013-04-03 08:29:00,39.0,26.7,29.84,SE,135,7.4,9.2,61,0.00,CLR,,0.00,WeatherDisplay:10.37,2013-04-03 14:29:00,
2013-04-03 08:35:00,39.6,27.2,29.84,South,180,5.1,6.9,61,0.00,CLR,,0.00,WeatherDisplay:10.37,2013-04-03 14:35:00,
2013-04-03 08:40:00,40.5,27.7,29.84,SW,225,6.7,7.8,60,0.00,CLR,,0.00,WeatherDisplay:10.37,2013-04-03 14:40:00,
2013-04-03 08:45:00,40.8,27.2,29.84,SW,225,8.4,8.4,58,0.00,CLR,,0.00,WeatherDisplay:10.37,2013-04-03 14:45:00,
2013-04-03 08:50:00,41.4,27.7,29.84,WSW,248,8.0,9.9,58,0.00,CLR,,0.00,WeatherDisplay:10.37,2013-04-03 14:50:00,
2013-04-03 08:55:00,42.4,28.2,29.83,SW,225,6.0,8.1,57,0.00,CLR,,0.00,WeatherDisplay:10.37,2013-04-03 14:55:00,
2013-04-03 09:00:00,42.4,28.2,29.83,SW,225,7.3,7.3,57,0.00,CLR,,0.00,WeatherDisplay:10.37,2013-04-03 15:00:00,
2013-04-03 09:05:00,44.4,27.4,29.83,WSW,248,14.6,16.1,51,0.00,SCT,,0.00,WeatherDisplay:10.37,2013-04-03 15:05:00,
2013-04-03 09:10:00,45.1,28.0,29.83,SW,225,12.0,13.8,51,0.00,SCT,,0.00,WeatherDisplay:10.37,2013-04-03 15:10:00,
2013-04-03 09:15:00,45.9,27.8,29.83,SSW,202,14.3,18.4,49,0.00,SCT,,0.00,WeatherDisplay:10.37,2013-04-03 15:15:00,
2013-04-03 09:20:00,45.9,27.3,29.83,SW,225,16.6,20.7,48,0.00,SCT,,0.00,WeatherDisplay:10.37,2013-04-03 15:20:00,
2013-04-03 09:25:00,46.4,27.8,29.83,SW,225,13.9,16.1,48,0.00,SCT,,0.00,WeatherDisplay:10.37,2013-04-03 15:25:00,
2013-04-03 09:30:00,47.1,28.4,29.83,WSW,248,11.1,13.8,48,0.00,SCT,,0.00,WeatherDisplay:10.37,2013-04-03 15:30:00,
2013-04-03 09:35:00,46.9,28.2,29.83,SW,225,12.7,13.8,48,0.00,SCT,,0.00,WeatherDisplay:10.37,2013-04-03 15:35:00,
2013-04-03 09:40:00,47.3,28.6,29.82,SW,225,12.2,12.7,48,0.00,SCT,,0.00,WeatherDisplay:10.37,2013-04-03 15:40:00,
2013-04-03 09:45:00,47.8,28.5,29.82,SW,225,12.5,13.8,47,0.00,SCT,,0.00,WeatherDisplay:10.37,2013-04-03 15:45:00,
2013-04-03 09:50:00,48.2,28.9,29.82,SW,225,11.0,11.5,47,0.00,SCT,,0.00,WeatherDisplay:10.37,2013-04-03 15:50:00,
2013-04-03 09:55:00,49.5,29.6,29.82,SW,225,7.3,10.4,46,0.00,SCT,,0.00,WeatherDisplay:10.37,2013-04-03 15:55:00,
2013-04-03 10:00:00,50.0,30.0,29.82,WSW,248,11.4,19.6,46,0.00,SCT,,0.00,WeatherDisplay:10.37,2013-04-03 16:00:00,
2013-04-03 10:05:00,50.9,29.7,29.82,SW,225,16.2,17.3,44,0.00,SCT,,0.00,WeatherDisplay:10.37,2013-04-03 16:05:00,
2013-04-03 10:10:00,51.3,30.1,29.82,SW,225,15.2,18.4,44,0.00,SCT,,0.00,WeatherDisplay:10.37,2013-04-03 16:10:00,
2013-04-03 10:15:00,51.8,30.0,29.82,SW,225,13.8,19.6,43,0.00,SCT,,0.00,WeatherDisplay:10.37,2013-04-03 16:15:00,
2013-04-03 10:20:00,52.9,31.0,29.82,West,270,15.2,18.1,43,0.00,SCT,,0.00,WeatherDisplay:10.37,2013-04-03 16:20:00,
2013-04-03 10:25:00,53.4,30.9,29.82,West,270,9.6,11.5,42,0.00,SCT,,0.00,WeatherDisplay:10.37,2013-04-03 16:25:00,
2013-04-03 10:30:00,54.1,31.5,29.83,WSW,248,9.9,11.5,42,0.00,SCT,,0.00,WeatherDisplay:10.37,2013-04-03 16:30:00,
2013-04-03 10:35:00,55.4,32.7,29.83,SW,225,10.0,12.4,42,0.00,SCT,,0.00,WeatherDisplay:10.37,2013-04-03 16:35:00,
2013-04-03 10:40:00,55.0,32.3,29.83,West,270,11.1,11.5,42,0.00,SCT,,0.00,WeatherDisplay:10.37,2013-04-03 16:40:00,
2013-04-03 10:45:00,55.6,32.8,29.83,West,270,8.2,14.0,42,0.00,SCT,,0.00,WeatherDisplay:10.37,2013-04-03 16:45:00,
2013-04-03 10:50:00,55.6,32.8,29.83,West,270,8.3,11.5,42,0.00,SCT,,0.00,WeatherDisplay:10.37,2013-04-03 16:50:00,
2013-04-03 10:55:00,55.9,33.1,29.83,WSW,248,11.7,15.0,42,0.00,SCT,,0.00,WeatherDisplay:10.37,2013-04-03 16:55:00,
2013-04-03 11:00:00,56.1,33.3,29.83,West,270,9.3,11.5,42,0.00,SCT,,0.00,WeatherDisplay:10.37,2013-04-03 17:00:00,
2013-04-03 11:05:00,56.3,33.5,29.83,West,270,8.7,11.5,42,0.00,SCT,,0.00,WeatherDisplay:10.37,2013-04-03 17:05:00,
2013-04-03 11:10:00,57.2,34.3,29.83,SSW,202,8.4,13.8,42,0.00,SCT,,0.00,WeatherDisplay:10.37,2013-04-03 17:10:00,
2013-04-03 11:15:00,56.5,33.7,29.83,SW,225,12.4,15.0,42,0.00,SCT,,0.00,WeatherDisplay:10.37,2013-04-03 17:15:00,
2013-04-03 11:20:00,56.7,34.4,29.83,SW,225,10.8,12.4,43,0.00,SCT,,0.00,WeatherDisplay:10.37,2013-04-03 17:20:00,
2013-04-03 11:25:00,56.8,34.5,29.83,West,270,7.7,12.7,43,0.00,SCT,,0.00,WeatherDisplay:10.37,2013-04-03 17:25:00,
2013-04-03 11:30:00,57.6,35.2,29.83,West,270,8.1,9.2,43,0.00,SCT,,0.00,WeatherDisplay:10.37,2013-04-03 17:30:00,
2013-04-03 11:35:00,57.6,35.2,29.83,WSW,248,9.4,10.4,43,0.00,SCT,,0.00,WeatherDisplay:10.37,2013-04-03 17:35:00,
2013-04-03 11:40:00,58.3,35.9,29.83,West,270,7.0,9.2,43,0.00,SCT,,0.00,WeatherDisplay:10.37,2013-04-03 17:40:00,
2013-04-03 11:45:00,59.4,36.9,29.83,SW,225,7.7,9.9,43,0.00,SCT,,0.00,WeatherDisplay:10.37,2013-04-03 17:45:00,
2013-04-03 11:50:00,59.5,36.4,29.83,WSW,248,8.5,13.8,42,0.00,SCT,,0.00,WeatherDisplay:10.37,2013-04-03 17:50:00,
2013-04-03 11:56:00,60.1,36.3,29.83,West,270,12.6,13.8,41,0.00,SCT,,0.00,WeatherDisplay:10.37,2013-04-03 17:56:00,
2013-04-03 12:01:00,61.3,37.4,29.83,West,270,7.6,9.9,41,0.00,SCT,,0.00,WeatherDisplay:10.37,2013-04-03 18:01:00,
2013-04-03 12:06:00,61.2,37.3,29.83,SW,225,12.4,17.3,41,0.00,SCT,,0.00,WeatherDisplay:10.37,2013-04-03 18:06:00,
2013-04-03 12:11:00,62.6,37.9,29.83,WSW,248,11.9,18.4,40,0.00,SCT,,0.00,WeatherDisplay:10.37,2013-04-03 18:11:00,
2013-04-03 12:16:00,63.9,38.4,29.83,SW,225,8.5,10.9,39,0.00,FEW,,0.00,WeatherDisplay:10.37,2013-04-03 18:16:00,
2013-04-03 12:21:00,64.4,38.2,29.83,West,270,9.9,11.5,38,0.00,FEW,,0.00,WeatherDisplay:10.37,2013-04-03 18:21:00,
2013-04-03 12:26:00,63.9,37.8,29.83,WSW,248,13.5,13.8,38,0.00,FEW,,0.00,WeatherDisplay:10.37,2013-04-03 18:26:00,
2013-04-03 12:31:00,63.3,37.2,29.83,WNW,292,13.8,18.4,38,0.00,FEW,,0.00,WeatherDisplay:10.37,2013-04-03 18:31:00,
2013-04-03 12:37:00,63.7,37.6,29.83,West,270,12.8,18.4,38,0.00,FEW,,0.00,WeatherDisplay:10.37,2013-04-03 18:37:00,
2013-04-03 12:42:00,63.5,37.4,29.83,West,270,16.7,20.7,38,0.00,FEW,,0.00,WeatherDisplay:10.37,2013-04-03 18:42:00,
2013-04-03 12:47:00,64.2,38.0,29.83,West,270,16.4,20.7,38,0.00,FEW,,0.00,WeatherDisplay:10.37,2013-04-03 18:47:00,
2013-04-03 12:52:00,64.2,37.4,29.83,WNW,292,9.7,16.1,37,0.00,FEW,,0.00,WeatherDisplay:10.37,2013-04-03 18:52:00,
2013-04-03 12:57:00,64.9,38.0,29.83,West,270,15.7,20.7,37,0.00,FEW,,0.00,WeatherDisplay:10.37,2013-04-03 18:57:00,
2013-04-03 13:02:00,64.0,37.2,29.83,WSW,248,17.2,19.6,37,0.00,FEW,,0.00,WeatherDisplay:10.37,2013-04-03 19:02:00,
2013-04-03 13:07:00,64.4,37.5,29.83,West,270,12.8,15.0,37,0.00,FEW,,0.00,WeatherDisplay:10.37,2013-04-03 19:07:00,
2013-04-03 13:12:00,65.3,38.3,29.83,WSW,248,11.9,11.9,37,0.00,CLR,,0.00,WeatherDisplay:10.37,2013-04-03 19:12:00,
2013-04-03 13:17:00,64.9,38.0,29.83,WNW,292,13.9,16.1,37,0.00,CLR,,0.00,WeatherDisplay:10.37,2013-04-03 19:17:00,
2013-04-03 13:22:00,64.9,38.0,29.83,West,270,16.6,16.6,37,0.00,CLR,,0.00,WeatherDisplay:10.37,2013-04-03 19:22:00,
2013-04-03 13:27:00,64.6,38.4,29.83,WSW,248,13.6,16.1,38,0.00,CLR,,0.00,WeatherDisplay:10.37,2013-04-03 19:27:00,
2013-04-03 13:32:00,64.9,38.7,29.83,SW,225,13.7,17.6,38,0.00,CLR,,0.00,WeatherDisplay:10.37,2013-04-03 19:32:00,
2013-04-03 13:37:00,64.6,39.1,29.83,West,270,12.4,16.1,39,0.00,CLR,,0.00,WeatherDisplay:10.37,2013-04-03 19:37:00,
2013-04-03 13:42:00,64.8,39.2,29.84,West,270,10.9,15.0,39,0.00,CLR,,0.00,WeatherDisplay:10.37,2013-04-03 19:42:00,
2013-04-03 13:47:00,64.4,39.5,29.84,WSW,248,10.8,13.8,40,0.00,CLR,,0.00,WeatherDisplay:10.37,2013-04-03 19:47:00,
2013-04-03 13:52:00,64.4,39.5,29.85,WSW,248,11.8,15.0,40,0.00,CLR,,0.00,WeatherDisplay:10.37,2013-04-03 19:52:00,
2013-04-03 13:58:00,64.8,39.2,29.85,West,270,9.9,16.1,39,0.00,CLR,,0.00,WeatherDisplay:10.37,2013-04-03 19:58:00,
2013-04-03 14:03:00,64.6,39.1,29.85,WNW,292,14.8,17.3,39,0.00,CLR,,0.00,WeatherDisplay:10.37,2013-04-03 20:03:00,
2013-04-03 14:08:00,63.7,39.5,29.86,ENE,68,14.5,14.5,41,0.00,CLR,,0.00,WeatherDisplay:10.37,2013-04-03 20:08:00,
2013-04-03 14:13:00,62.6,39.2,29.86,NW,315,14.4,17.3,42,0.00,CLR,,0.00,WeatherDisplay:10.37,2013-04-03 20:13:00,
2013-04-03 14:18:00,60.8,40.4,29.87,NW,315,11.7,16.1,47,0.00,CLR,,0.00,WeatherDisplay:10.37,2013-04-03 20:18:00,
2013-04-03 14:23:00,60.4,40.1,29.87,WNW,292,11.4,11.4,47,0.00,CLR,,0.00,WeatherDisplay:10.37,2013-04-03 20:23:00,
2013-04-03 14:28:00,60.1,39.8,29.87,NE,45,9.7,13.8,47,0.00,CLR,,0.00,WeatherDisplay:10.37,2013-04-03 20:28:00,
2013-04-03 14:33:00,59.9,39.1,29.89,West,270,13.2,19.6,46,0.00,CLR,,0.00,WeatherDisplay:10.37,2013-04-03 20:33:00,
2013-04-03 14:38:00,57.4,38.4,29.89,NNW,338,13.2,16.1,49,0.00,CLR,,0.00,WeatherDisplay:10.37,2013-04-03 20:38:00,
2013-04-03 14:43:00,57.2,38.2,29.90,NW,315,14.0,14.0,49,0.00,CLR,,0.00,WeatherDisplay:10.37,2013-04-03 20:43:00,
2013-04-03 14:48:00,56.1,37.7,29.90,North,360,11.0,17.3,50,0.00,CLR,,0.00,WeatherDisplay:10.37,2013-04-03 20:48:00,
2013-04-03 14:54:00,54.7,36.9,29.91,WNW,292,12.7,17.6,51,0.00,CLR,,0.00,WeatherDisplay:10.37,2013-04-03 20:54:00,
2013-04-03 14:59:00,54.5,37.2,29.91,NNW,338,13.5,13.8,52,0.00,CLR,,0.00,WeatherDisplay:10.37,2013-04-03 20:59:00,
2013-04-03 15:04:00,53.4,37.2,29.92,NNW,338,14.7,19.6,54,0.00,CLR,,0.00,WeatherDisplay:10.37,2013-04-03 21:04:00,
2013-04-03 15:09:00,53.2,36.0,29.92,North,360,14.2,19.6,52,0.00,CLR,,0.00,WeatherDisplay:10.37,2013-04-03 21:09:00,
2013-04-03 15:14:00,53.4,36.2,29.92,West,270,11.5,17.1,52,0.00,CLR,,0.00,WeatherDisplay:10.37,2013-04-03 21:14:00,
2013-04-03 15:19:00,54.0,36.8,29.92,NNW,338,10.0,16.1,52,0.00,CLR,,0.00,WeatherDisplay:10.37,2013-04-03 21:19:00,
2013-04-03 15:24:00,52.2,36.0,29.92,NW,315,10.9,15.0,54,0.00,CLR,,0.00,WeatherDisplay:10.37,2013-04-03 21:24:00,
2013-04-03 15:29:00,52.2,36.0,29.94,NNW,338,8.1,8.1,54,0.00,CLR,,0.00,WeatherDisplay:10.37,2013-04-03 21:29:00,
2013-04-03 15:34:00,51.8,36.1,29.94,NNW,338,10.9,17.6,55,0.00,CLR,,0.00,WeatherDisplay:10.37,2013-04-03 21:34:00,
2013-04-03 15:39:00,50.7,35.6,29.95,NNE,22,10.6,17.3,56,0.00,CLR,,0.00,WeatherDisplay:10.37,2013-04-03 21:39:00,
2013-04-03 15:44:00,50.9,33.9,29.95,North,360,12.3,17.3,52,0.00,CLR,,0.00,WeatherDisplay:10.37,2013-04-03 21:44:00,
2013-04-03 15:49:00,51.1,34.1,29.95,North,360,11.9,11.9,52,0.00,CLR,,0.00,WeatherDisplay:10.37,2013-04-03 21:49:00,
2013-04-03 15:54:00,51.4,33.4,29.96,NW,315,10.4,15.0,50,0.00,CLR,,0.00,WeatherDisplay:10.37,2013-04-03 21:54:00,
2013-04-03 15:59:00,50.7,33.2,29.96,WNW,292,9.2,13.8,51,0.00,CLR,,0.00,WeatherDisplay:10.37,2013-04-03 21:59:00,
2013-04-03 16:04:00,51.3,33.3,29.97,NE,45,13.4,15.5,50,0.00,CLR,,0.00,WeatherDisplay:10.37,2013-04-03 22:04:00,
2013-04-03 16:10:00,51.1,33.1,29.97,North,360,11.5,15.0,50,0.00,CLR,,0.00,WeatherDisplay:10.37,2013-04-03 22:10:00,
2013-04-03 16:15:00,50.7,32.7,29.97,NE,45,12.9,17.3,50,0.00,CLR,,0.00,WeatherDisplay:10.37,2013-04-03 22:15:00,
2013-04-03 16:20:00,51.6,33.0,29.97,North,360,10.2,12.7,49,0.00,CLR,,0.00,WeatherDisplay:10.37,2013-04-03 22:20:00,
2013-04-03 16:25:00,51.8,32.2,29.97,NW,315,10.0,13.8,47,0.00,CLR,,0.00,WeatherDisplay:10.37,2013-04-03 22:25:00,
2013-04-03 16:30:00,52.2,32.0,29.97,NE,45,6.5,10.4,46,0.00,CLR,,0.00,WeatherDisplay:10.37,2013-04-03 22:30:00,
2013-04-03 16:35:00,52.0,31.8,29.97,NNW,338,8.9,13.8,46,0.00,CLR,,0.00,WeatherDisplay:10.37,2013-04-03 22:35:00,
2013-04-03 16:40:00,52.0,31.3,29.98,North,360,7.1,16.1,45,0.00,CLR,,0.00,WeatherDisplay:10.37,2013-04-03 22:40:00,
2013-04-03 16:45:00,51.8,30.0,29.98,NNE,22,11.4,13.8,43,0.00,CLR,,0.00,WeatherDisplay:10.37,2013-04-03 22:45:00,
2013-04-03 16:50:00,51.1,29.4,29.98,NNE,22,12.6,20.7,43,0.00,CLR,,0.00,WeatherDisplay:10.37,2013-04-03 22:50:00,
2013-04-03 16:56:00,50.7,29.0,29.98,ENE,68,13.6,15.0,43,0.00,CLR,,0.00,WeatherDisplay:10.37,2013-04-03 22:56:00,
2013-04-03 17:01:00,50.9,29.2,29.98,NW,315,9.1,15.0,43,0.00,CLR,,0.00,WeatherDisplay:10.37,2013-04-03 23:01:00,
2013-04-03 17:06:00,50.4,28.7,29.99,NNE,22,9.3,10.4,43,0.00,CLR,,0.00,WeatherDisplay:10.37,2013-04-03 23:06:00,
2013-04-03 17:11:00,50.0,28.4,29.99,NNW,338,7.9,12.7,43,0.00,CLR,,0.00,WeatherDisplay:10.37,2013-04-03 23:11:00,
2013-04-03 17:16:00,50.2,28.0,30.00,NNE,22,7.2,16.1,42,0.00,CLR,,0.00,WeatherDisplay:10.37,2013-04-03 23:16:00,
2013-04-03 17:21:00,50.0,27.8,30.00,North,360,8.3,10.4,42,0.00,CLR,,0.00,WeatherDisplay:10.37,2013-04-03 23:21:00,
2013-04-03 17:26:00,50.9,29.2,30.00,ENE,68,8.2,11.5,43,0.00,CLR,,0.00,WeatherDisplay:10.37,2013-04-03 23:26:00,
2013-04-03 17:31:00,50.0,28.9,30.01,NE,45,14.6,16.1,44,0.00,CLR,,0.00,WeatherDisplay:10.37,2013-04-03 23:31:00,
2013-04-03 17:36:00,50.2,28.5,30.01,ENE,68,6.1,10.4,43,0.00,CLR,,0.00,WeatherDisplay:10.37,2013-04-03 23:36:00,
2013-04-03 17:41:00,50.2,28.5,30.00,West,270,10.4,10.4,43,0.00,CLR,,0.00,WeatherDisplay:10.37,2013-04-03 23:41:00,
2013-04-03 17:46:00,49.8,27.6,30.00,NW,315,8.0,15.0,42,0.00,CLR,,0.00,WeatherDisplay:10.37,2013-04-03 23:46:00,
2013-04-03 17:51:00,49.6,27.4,30.00,ENE,68,5.5,6.9,42,0.00,CLR,,0.00,WeatherDisplay:10.37,2013-04-03 23:51:00,
2013-04-03 17:57:00,49.8,27.6,30.01,NE,45,6.8,6.9,42,0.00,CLR,,0.00,WeatherDisplay:10.37,2013-04-03 23:57:00,
2013-04-03 18:02:00,49.3,28.3,30.01,NNW,338,8.1,8.8,44,0.00,BKN,,0.00,WeatherDisplay:10.37,2013-04-04 00:02:00,
2013-04-03 18:07:00,48.7,27.7,30.02,NW,315,12.4,13.8,44,0.00,BKN,,0.00,WeatherDisplay:10.37,2013-04-04 00:07:00,
2013-04-03 18:12:00,48.4,27.5,30.02,NE,45,9.3,10.4,44,0.00,BKN,,0.00,WeatherDisplay:10.37,2013-04-04 00:12:00,
2013-04-03 18:17:00,48.4,27.5,30.03,NE,45,6.8,6.9,44,0.00,BKN,,0.00,WeatherDisplay:10.37,2013-04-04 00:17:00,
2013-04-03 18:22:00,48.4,27.5,30.03,NW,315,9.4,9.4,44,0.00,BKN,,0.00,WeatherDisplay:10.37,2013-04-04 00:22:00,
2013-04-03 18:27:00,46.6,27.9,30.03,NNE,22,7.1,8.1,48,0.00,BKN,,0.00,WeatherDisplay:10.37,2013-04-04 00:27:00,
2013-04-03 18:32:00,45.9,28.3,30.04,West,270,8.9,11.5,50,0.00,BKN,,0.00,WeatherDisplay:10.37,2013-04-04 00:32:00,
2013-04-03 18:37:00,45.9,27.8,30.04,NW,315,5.8,5.8,49,0.00,BKN,,0.00,WeatherDisplay:10.37,2013-04-04 00:37:00,
2013-04-03 18:42:00,45.3,27.2,30.05,NNW,338,9.7,11.5,49,0.00,BKN,,0.00,WeatherDisplay:10.37,2013-04-04 00:42:00,
2013-04-03 18:47:00,44.8,27.3,30.05,West,270,6.8,10.4,50,0.00,BKN,,0.00,WeatherDisplay:10.37,2013-04-04 00:47:00,
2013-04-03 18:52:00,44.8,27.3,30.05,West,270,11.9,11.9,50,0.00,BKN,,0.00,WeatherDisplay:10.37,2013-04-04 00:52:00,
2013-04-03 18:57:00,43.5,26.6,30.05,NW,315,7.1,8.1,51,0.00,BKN,,0.00,WeatherDisplay:10.37,2013-04-04 00:57:00,
2013-04-03 19:02:00,43.3,26.8,30.05,NE,45,7.6,8.1,52,0.00,OVC,,0.00,WeatherDisplay:10.37,2013-04-04 01:02:00,
2013-04-03 19:07:00,43.0,27.0,30.06,ENE,68,4.4,8.3,53,0.00,OVC,,0.00,WeatherDisplay:10.37,2013-04-04 01:07:00,
2013-04-03 19:12:00,42.6,27.5,30.06,NNW,338,6.3,8.1,55,0.00,OVC,,0.00,WeatherDisplay:10.37,2013-04-04 01:12:00,
2013-04-03 19:17:00,42.3,27.7,30.07,SSE,158,4.1,5.8,56,0.00,OVC,,0.00,WeatherDisplay:10.37,2013-04-04 01:17:00,
2013-04-03 19:22:00,42.1,28.4,30.07,NNE,22,4.1,5.8,58,0.00,OVC,,0.00,WeatherDisplay:10.37,2013-04-04 01:22:00,
2013-04-03 19:27:00,41.7,28.4,30.07,NNW,338,3.5,5.8,59,0.00,OVC,,0.00,WeatherDisplay:10.37,2013-04-04 01:27:00,
2013-04-03 19:32:00,41.7,27.6,30.07,North,360,4.2,5.8,57,0.00,OVC,,0.00,WeatherDisplay:10.37,2013-04-04 01:32:00,
2013-04-03 19:37:00,41.4,26.9,30.07,NNE,22,4.0,5.8,56,0.00,OVC,,0.00,WeatherDisplay:10.37,2013-04-04 01:37:00,
2013-04-03 19:42:00,41.2,25.8,30.07,NW,315,7.2,9.2,54,0.00,OVC,,0.00,WeatherDisplay:10.37,2013-04-04 01:42:00,
2013-04-03 19:47:00,41.0,24.2,30.07,NNW,338,5.3,8.1,51,0.00,OVC,,0.00,WeatherDisplay:10.37,2013-04-04 01:47:00,
2013-04-03 19:52:00,40.8,23.6,30.07,NW,315,5.3,6.3,50,0.00,OVC,,0.00,WeatherDisplay:10.37,2013-04-04 01:52:00,
2013-04-03 19:57:00,40.6,22.9,30.07,NNW,338,5.7,8.1,49,0.00,OVC,,0.00,WeatherDisplay:10.37,2013-04-04 01:57:00,
2013-04-03 20:03:00,40.5,21.8,30.07,NNW,338,7.9,9.2,47,0.00,OVC,,0.00,WeatherDisplay:10.37,2013-04-04 02:03:00,
2013-04-03 20:08:00,40.3,21.6,30.07,West,270,6.8,9.9,47,0.00,OVC,,0.00,WeatherDisplay:10.37,2013-04-04 02:08:00,
2013-04-03 20:13:00,40.1,21.5,30.07,NNW,338,5.3,5.8,47,0.00,OVC,,0.00,WeatherDisplay:10.37,2013-04-04 02:13:00,
2013-04-03 20:18:00,39.9,21.3,30.08,WNW,292,4.5,10.4,47,0.00,OVC,,0.00,WeatherDisplay:10.37,2013-04-04 02:18:00,
2013-04-03 20:23:00,39.6,21.0,30.08,North,360,5.3,6.9,47,0.00,OVC,,0.00,WeatherDisplay:10.37,2013-04-04 02:23:00,
2013-04-03 20:28:00,39.0,21.4,30.08,NW,315,3.8,6.9,49,0.00,OVC,,0.00,WeatherDisplay:10.37,2013-04-04 02:28:00,
2013-04-03 20:33:00,38.8,21.3,30.08,North,360,5.7,7.3,49,0.00,OVC,,0.00,WeatherDisplay:10.37,2013-04-04 02:33:00,
2013-04-03 20:38:00,38.5,21.5,30.08,NE,45,5.2,9.2,50,0.00,OVC,,0.00,WeatherDisplay:10.37,2013-04-04 02:38:00,
2013-04-03 20:43:00,38.1,21.5,30.08,NW,315,4.0,5.8,51,0.00,OVC,,0.00,WeatherDisplay:10.37,2013-04-04 02:43:00,
2013-04-03 20:48:00,37.9,22.3,30.08,NE,45,5.0,5.8,53,0.00,OVC,,0.00,WeatherDisplay:10.37,2013-04-04 02:48:00,
2013-04-03 20:53:00,37.4,22.3,30.09,WNW,292,4.4,5.8,54,0.00,OVC,,0.00,WeatherDisplay:10.37,2013-04-04 02:53:00,
2013-04-03 20:58:00,37.0,21.9,30.09,ENE,68,1.1,5.8,54,0.00,OVC,,0.00,WeatherDisplay:10.37,2013-04-04 02:58:00,
2013-04-03 21:03:00,36.7,22.0,30.09,NE,45,1.9,4.6,55,0.00,BKN,,0.00,WeatherDisplay:10.37,2013-04-04 03:03:00,
2013-04-03 21:08:00,36.5,22.3,30.09,NNW,338,2.4,3.5,56,0.00,BKN,,0.00,WeatherDisplay:10.37,2013-04-04 03:08:00,
2013-04-03 21:13:00,36.3,22.1,30.09,West,270,4.4,4.4,56,0.00,BKN,,0.00,WeatherDisplay:10.37,2013-04-04 03:13:00,
2013-04-03 21:18:00,36.0,22.2,30.09,NNW,338,4.0,4.0,57,0.00,BKN,,0.00,WeatherDisplay:10.37,2013-04-04 03:18:00,
2013-04-03 21:23:00,35.8,22.5,30.09,West,270,3.1,3.7,58,0.00,BKN,,0.00,WeatherDisplay:10.37,2013-04-04 03:23:00,
2013-04-03 21:28:00,35.6,22.3,30.10,NW,315,3.1,4.6,58,0.00,BKN,,0.00,WeatherDisplay:10.37,2013-04-04 03:28:00,
2013-04-03 21:33:00,35.2,21.9,30.10,WSW,248,3.9,4.6,58,0.00,BKN,,0.00,WeatherDisplay:10.37,2013-04-04 03:33:00,
2013-04-03 21:38:00,35.1,22.2,30.10,NE,45,2.3,5.8,59,0.00,BKN,,0.00,WeatherDisplay:10.37,2013-04-04 03:38:00,
2013-04-03 21:43:00,34.9,22.0,30.10,NW,315,3.5,4.6,59,0.00,BKN,,0.00,WeatherDisplay:10.37,2013-04-04 03:43:00,
2013-04-03 21:48:00,35.1,22.2,30.10,WNW,292,3.2,3.5,59,0.00,BKN,,0.00,WeatherDisplay:10.37,2013-04-04 03:48:00,
2013-04-03 21:53:00,34.7,22.2,30.10,NNW,338,2.8,3.5,60,0.00,BKN,,0.00,WeatherDisplay:10.37,2013-04-04 03:53:00,
2013-04-03 21:58:00,34.5,22.4,30.10,WNW,292,3.0,3.5,61,0.00,BKN,,0.00,WeatherDisplay:10.37,2013-04-04 03:58:00,
2013-04-03 22:00:00,34.5,22.4,30.10,North,360,3.2,3.5,61,0.00,BKN,,0.00,WeatherDisplay:10.37,2013-04-04 04:00:00,
2013-04-03 22:05:00,34.3,22.2,30.10,NW,315,3.0,3.5,61,0.00,BKN,,0.00,WeatherDisplay:10.37,2013-04-04 04:05:00,
2013-04-03 22:10:00,34.0,22.3,30.10,WSW,248,1.7,2.3,62,0.00,BKN,,0.00,WeatherDisplay:10.37,2013-04-04 04:10:00,
2013-04-03 22:15:00,33.8,22.1,30.10,NW,315,1.3,1.3,62,0.00,CLR,,0.00,WeatherDisplay:10.37,2013-04-04 04:15:00,
2013-04-03 22:20:00,33.3,22.1,30.10,WSW,248,1.7,2.3,63,0.00,CLR,,0.00,WeatherDisplay:10.37,2013-04-04 04:20:00,
2013-04-03 22:25:00,33.1,21.9,30.10,West,270,2.8,3.5,63,0.00,CLR,,0.00,WeatherDisplay:10.37,2013-04-04 04:25:00,
2013-04-03 22:30:00,33.1,22.2,30.09,West,270,2.6,4.6,64,0.00,CLR,,0.00,WeatherDisplay:10.37,2013-04-04 04:30:00,
2013-04-03 22:35:00,32.7,21.9,30.09,West,270,4.2,4.6,64,0.00,CLR,,0.00,WeatherDisplay:10.37,2013-04-04 04:35:00,
2013-04-03 22:40:00,32.5,22.4,30.10,WSW,248,4.2,4.6,66,0.00,CLR,,0.00,WeatherDisplay:10.37,2013-04-04 04:40:00,
2013-04-03 22:45:00,32.2,22.1,30.10,SW,225,2.5,3.5,66,0.00,CLR,,0.00,WeatherDisplay:10.37,2013-04-04 04:45:00,
2013-04-03 22:50:00,32.0,22.3,30.10,WSW,248,2.6,3.5,67,0.00,CLR,,0.00,WeatherDisplay:10.37,2013-04-04 04:50:00,
2013-04-03 22:55:00,31.6,21.9,30.10,ENE,68,1.7,2.3,67,0.00,CLR,,0.00,WeatherDisplay:10.37,2013-04-04 04:55:00,
2013-04-03 23:00:00,31.5,22.1,30.10,NE,45,2.1,2.7,68,0.00,CLR,,0.00,WeatherDisplay:10.37,2013-04-04 05:00:00,
2013-04-03 23:05:00,31.3,22.0,30.10,West,270,3.1,4.6,68,0.00,CLR,,0.00,WeatherDisplay:10.37,2013-04-04 05:05:00,
2013-04-03 23:10:00,31.3,22.0,30.10,West,270,2.2,2.3,68,0.00,CLR,,0.00,WeatherDisplay:10.37,2013-04-04 05:10:00,
2013-04-03 23:15:00,31.1,22.1,30.10,WSW,248,2.9,3.7,69,0.00,CLR,,0.00,WeatherDisplay:10.37,2013-04-04 05:15:00,
2013-04-03 23:20:00,30.9,22.3,30.11,WSW,248,4.3,5.8,70,0.00,CLR,,0.00,WeatherDisplay:10.37,2013-04-04 05:20:00,
2013-04-03 23:25:00,30.9,22.3,30.11,West,270,3.0,3.5,70,0.00,CLR,,0.00,WeatherDisplay:10.37,2013-04-04 05:25:00,
2013-04-03 23:30:00,30.7,22.4,30.10,SW,225,3.2,3.5,71,0.00,CLR,,0.00,WeatherDisplay:10.37,2013-04-04 05:30:00,
2013-04-03 23:35:00,30.0,22.7,30.10,ESE,112,0.0,0.0,74,0.00,CLR,,0.00,WeatherDisplay:10.37,2013-04-04 05:35:00,
2013-04-03 23:40:00,29.7,22.4,30.11,NNW,338,0.0,0.0,74,0.00,CLR,,0.00,WeatherDisplay:10.37,2013-04-04 05:40:00,
2013-04-03 23:45:00,29.3,22.0,30.11,West,270,2.0,2.3,74,0.00,CLR,,0.00,WeatherDisplay:10.37,2013-04-04 05:45:00,
2013-04-03 23:50:00,29.7,22.4,30.11,West,270,3.4,3.5,74,0.00,CLR,,0.00,WeatherDisplay:10.37,2013-04-04 05:50:00,
2013-04-03 23:55:00,29.7,22.4,30.11,WNW,292,3.5,4.2,74,0.00,CLR,,0.00,WeatherDisplay:10.37,2013-04-04 05:55:00,